Temp
-10 -10 -10 -10 -10 -10 -11 -11 -11 -10 -10 -9 -9 -9 -9 -9 -9 -9 -8 -7 -6 -6 -7 -7 -7 -7 -7 -7 -7 -7 -6 -6 -6 -6 -4 -4 -3 -4 -4 -3 -4 -4 -3 -5 -4 -3 -4 -6 -7 -7 -6 -6 -6 -7
-10 -10 -10 -10 -10 -10 -10 -11 -11 -10 -10 -10 -10 -10 -9 -9 -9 -8 -7 -7 -7 -7 -6 -7 -7 -6 -6 -7 -7 -6 -7 -5 -6 -5 -5 -4 -5 -5 -3 -5 -5 -5 -5 -5 -5 -6 -6 -6 -7 -7 -7 -7 -7 -7
-10 -10 -10 -10 -10 -10 -10 -11 -11 -10 -10 -10 -10 -10 -10 -9 -9 -8 -8 -7 -7 -7 -8 -8 -7 -7 -6 -6 -6 -6 -6 -5 -5 -6 -6 -6 -5 -4 -5 -3 -6 -6 -5 -7 -6 -6 -6 -7 -7 -7 -7 -7 -7 -7
-10 -10 -10 -10 -10 -10 -10 -11 -11 -11 -11 -11 -10 -10 -10 -9 -9 -8 -8 -6 -7 -6 -7 -8 -7 -7 -6 -6 -6 -6 -5 -6 -5 -5 -6 -6 -5 -5 -4 -5 -5 -6 -6 -7 -6 -6 -7 -7 -7 -7 -8 -7 -7 -7
-10 -10 -10 -10 -10 -11 -11 -11 -11 -11 -11 -11 -11 -10 -9 -8 -8 -8 -8 -7 -7 -7 -7 -7 -7 -7 -7 -6 -6 -6 -6 -6 -6 -6 -6 -6 -6 -7 -7 -6 -6 -6 -7 -7 -7 -6 -6 -7 -7 -7 -8 -8 -8 -8
-10 -10 -11 -10 -10 -11 -11 -11 -11 -11 -11 -10 -10 -10 -9 -9 -9 -9 -8 -8 -8 -7 -7 -9 -8 -8 -7 -7 -7 -6 -6 -6 -7 -8 -8 -8 -6 -6 -6 -6 -7 -6 -6 -6 -6 -6 -6 -7 -7 -7 -8 -8 -8 -8
-10 -11 -11 -11 -10 -11 -11 -11 -11 -11 -11 -10 -10 -9 -9 -9 -9 -7 -7 -7 -8 -7 -7 -10 -10 -8 -8 -7 -7 -7 -7 -7 -8 -7 -8 -8 -7 -7 -8 -6 -7 -6 -6 -6 -6 -6 -6 -7 -7 -8 -8 -8 -8 -8
-10 -11 -11 -11 -11 -11 -11 -11 -11 -11 -11 -10 -10 -9 -9 -9 -9 -8 -7 -8 -8 -8 -8 -9 -9 -9 -8 -8 -7 -7 -7 -7 -7 -7 -7 -8 -8 -7 -8 -8 -7 -7 -7 -6 -6 -7 -7 -7 -7 -8 -8 -8 -8 -8
-10 -10 -11 -11 -11 -11 -11 -11 -11 -11 -11 -10 -9 -10 -9 -9 -8 -8 -8 -8 -8 -8 -7 -8 -9 -9 -8 -7 -7 -7 -7 -7 -7 -8 -8 -8 -7 -8 -8 -8 -7 -7 -7 -7 -7 -7 -7 -7 -8 -8 -8 -8 -8 -8
-10 -10 -10 -11 -11 -11 -11 -11 -11 -10 -10 -10 -10 -11 -10 -9 -8 -9 -9 -9 -9 -8 -8 -8 -8 -7 -8 -7 -7 -7 -7 -7 -9 -8 -7 -8 -8 -7 -7 -7 -7 -7 -7 -7 -7 -7 -7 -7 -8 -8 -8 -8 -8 -8
-11 -10 -11 -11 -11 -11 -11 -11 -11 -11 -11 -10 -10 -10 -9 -9 -9 -9 -9 -9 -9 -8 -8 -7 -8 -7 -8 -8 -7 -7 -8 -8 -8 -8 -8 -8 -7 -7 -7 -7 -7 -7 -8 -8 -8 -7 -8 -8 -8 -8 -8 -8 -8 -8
-11 -11 -11 -11 -11 -11 -11 -12 -12 -11 -10 -10 -10 -10 -10 -10 -9 -9 -9 -9 -9 -9 -8 -8 -8 -8 -8 -8 -8 -8 -7 -7 -8 -7 -7 -8 -8 -7 -7 -7 -7 -8 -8 -8 -8 -8 -8 -8 -8 -8 -8 -8 -8 -8
-11 -11 -11 -11 -11 -12 -12 -12 -12 -12 -12 -11 -12 -12 -10 -10 -9 -9 -9 -9 -9 -8 -7 -7 -8 -8 -8 -8 -7 -7 -7 -8 -8 -8 -8 -8 -7 -7 -7 -7 -8 -8 -8 -8 -9 -9 -9 -8 -8 -8 -8 -8 -8 -9
-11 -11 -11 -12 -12 -12 -12 -12 -12 -12 -12 -12 -12 -12 -10 -10 -10 -9 -10 -8 -7 -7 -8 -8 -8 -8 -8 -7 -7 -7 -8 -8 -8 -9 -8 -8 -7 -7 -7 -8 -8 -8 -8 -9 -9 -9 -9 -9 -9 -9 -9 -9 -9 -9
-12 -12 -12 -12 -12 -12 -12 -13 -13 -13 -12 -12 -12 -11 -10 -9 -9 -8 -8 -8 -7 -8 -8 -8 -8 -8 -8 -8 -7 -8 -8 -9 -9 -8 -8 -7 -7 -7 -7 -7 -8 -8 -9 -9 -9 -9 -9 -9 -9 -9 -9 -9 -9 -9
-12 -12 -12 -13 -13 -13 -13 -13 -13 -13 -12 -11 -11 -10 -10 -9 -9 -9 -9 -8 -8 -8 -9 -9 -9 -8 -8 -8 -8 -8 -9 -8 -9 -7 -7 -8 -8 -8 -7 -7 -8 -8 -9 -9 -9 -9 -10 -10 -10 -9 -9 -9 -9 -9
-12 -13 -13 -13 -13 -13 -14 -14 -13 -13 -11 -11 -11 -10 -10 -11 -10 -9 -9 -9 -9 -9 -10 -9 -8 -8 -8 -8 -8 -8 -8 -7 -7 -7 -8 -8 -8 -8 -7 -8 -8 -8 -9 -9 -9 -9 -9 -10 -10 -10 -10 -10 -10 -9
-12 -13 -13 -13 -13 -14 -14 -13 -13 -13 -11 -11 -11 -10 -10 -10 -10 -10 -9 -10 -10 -10 -10 -9 -8 -8 -8 -8 -8 -8 -8 -8 -8 -8 -8 -8 -8 -8 -8 -8 -8 -8 -8 -9 -9 -9 -9 -9 -9 -10 -10 -9 -9 -10
-12 -13 -13 -14 -14 -14 -13 -13 -12 -12 -12 -11 -11 -11 -11 -10 -10 -10 -10 -10 -10 -10 -9 -9 -9 -9 -9 -8 -8 -8 -8 -8 -8 -8 -8 -8 -8 -8 -8 -8 -8 -8 -8 -8 -9 -9 -9 -9 -9 -9 -9 -9 -10 -10
-13 -13 -14 -14 -14 -14 -13 -13 -12 -12 -12 -12 -12 -11 -11 -11 -11 -10 -10 -11 -11 -10 -9 -9 -9 -9 -9 -9 -9 -9 -9 -9 -9 -9 -9 -9 -9 -9 -8 -8 -8 -8 -8 -9 -9 -9 -9 -10 -10 -10 -10 -10 -10 -11
-13 -14 -14 -14 -14 -13 -13 -13 -12 -12 -12 -12 -12 -12 -12 -11 -11 -11 -11 -11 -11 -10 -10 -10 -9 -10 -9 -9 -9 -9 -9 -9 -9 -9 -9 -9 -9 -9 -9 -9 -9 -9 -9 -9 -9 -9 -9 -10 -10 -10 -10 -11 -11 -11
-13 -13 -14 -14 -13 -13 -13 -13 -13 -13 -12 -12 -12 -12 -12 -11 -11 -11 -11 -11 -11 -10 -10 -10 -10 -10 -10 -9 -9 -9 -9 -9 -9 -9 -9 -9 -9 -9 -9 -9 -9 -9 -9 -9 -9 -9 -9 -10 -10 -11 -11 -11 -12 -13
-13 -13 -14 -13 -13 -14 -14 -14 -13 -13 -13 -13 -12 -12 -12 -12 -12 -11 -11 -11 -11 -11 -11 -11 -10 -10 -10 -10 -10 -9 -9 -9 -9 -9 -9 -9 -9 -9 -9 -9 -9 -10 -10 -9 -10 -10 -10 -10 -11 -11 -12 -12 -13 -14
-13 -13 -13 -13 -13 -14 -14 -14 -13 -14 -13 -13 -13 -12 -12 -12 -12 -12 -11 -11 -11 -11 -11 -11 -11 -10 -10 -10 -10 -9 -9 -10 -10 -10 -9 -9 -9 -10 -10 -10 -10 -10 -10 -10 -10 -10 -11 -11 -12 -12 -13 -14 -14 -15
-14 -14 -14 -14 -14 -14 -14 -14 -14 -14 -14 -14 -13 -13 -13 -12 -12 -12 -12 -11 -11 -11 -11 -11 -11 -10 -10 -10 -10 -9 -9 -9 -10 -10 -10 -10 -10 -10 -10 -10 -10 -10 -10 -11 -11 -11 -12 -12 -13 -13 -14 -15 -16 -16
-14 -14 -14 -14 -14 -14 -14 -14 -14 -14 -14 -14 -14 -13 -13 -13 -13 -13 -12 -11 -11 -11 -11 -11 -10 -10 -10 -10 -10 -9 -10 -10 -10 -10 -10 -10 -10 -10 -10 -10 -10 -11 -11 -11 -12 -12 -12 -13 -14 -15 -16 -16 -17 -17
-14 -14 -14 -14 -14 -14 -14 -14 -14 -14 -14 -14 -14 -13 -13 -13 -13 -12 -12 -12 -11 -11 -11 -11 -10 -10 -10 -10 -10 -10 -10 -10 -10 -10 -10 -11 -11 -11 -11 -11 -11 -12 -12 -12 -13 -13 -13 -14 -15 -16 -17 -17 -18 -18
-14 -14 -14 -14 -14 -14 -14 -14 -14 -14 -14 -13 -13 -13 -14 -13 -13 -13 -12 -12 -12 -12 -12 -12 -11 -11 -11 -11 -11 -10 -10 -10 -11 -11 -11 -11 -12 -12 -12 -13 -13 -13 -13 -14 -14 -14 -15 -16 -16 -17 -18 -18 -19 -19
-15 -14 -14 -14 -14 -14 -14 -14 -14 -14 -14 -14 -13 -13 -13 -13 -13 -13 -13 -13 -13 -13 -12 -12 -12 -12 -12 -11 -11 -11 -11 -11 -11 -12 -12 -13 -13 -14 -14 -14 -14 -14 -15 -15 -15 -16 -16 -17 -18 -18 -19 -19 -19 -19
-14 -14 -14 -14 -14 -14 -14 -14 -14 -14 -14 -14 -14 -14 -13 -13 -13 -13 -13 -13 -13 -13 -13 -13 -13 -12 -12 -12 -12 -12 -12 -12 -13 -13 -14 -14 -15 -15 -15 -15 -16 -16 -16 -16 -17 -17 -18 -18 -19 -19 -19 -19 -19 -20
-14 -14 -14 -14 -13 -13 -14 -14 -14 -13 -13 -13 -13 -13 -13 -13 -13 -13 -13 -13 -13 -13 -13 -13 -13 -13 -13 -13 -13 -13 -14 -14 -14 -15 -15 -16 -16 -16 -17 -17 -17 -17 -17 -17 -18 -19 -19 -19 -19 -19 -19 -20 -20 -20
-14 -14 -14 -14 -13 -13 -14 -14 -14 -13 -13 -13 -13 -13 -13 -13 -13 -12 -13 -13 -13 -13 -13 -14 -14 -14 -14 -14 -14 -15 -15 -16 -16 -16 -16 -17 -17 -17 -17 -17 -18 -18 -18 -19 -19 -19 -19 -19 -19 -20 -20 -20 -21 -21
-14 -14 -14 -14 -14 -14 -14 -14 -13 -13 -13 -13 -13 -13 -13 -14 -13 -13 -13 -13 -14 -14 -14 -14 -14 -15 -15 -15 -16 -16 -17 -17 -17 -17 -17 -17 -18 -18 -18 -18 -19 -19 -19 -19 -19 -19 -19 -20 -20 -20 -21 -21 -21 -22
Height
2868 2874 2883 2888 2893 2896 2898 2901 2903 2905 2909 2913 2918 2922 2927 2931 2938 2943 2948 2953 2957 2960 2966 2972 2978 2981 2985 2991 2993 2996 3003 3006 3010 3015 3018 3019 3019 3021 3023 3023 3025 3027 3026 3026 3026 3023 3024 3023 3025 3029 3029 3028 3030 3031
2865 2872 2880 2886 2890 2894 2897 2899 2901 2904 2908 2914 2920 2923 2928 2935 2940 2945 2949 2953 2956 2962 2963 2970 2976 2980 2982 2987 2992 2995 2999 3001 3007 3012 3014 3016 3017 3017 3020 3021 3020 3025 3024 3022 3023 3021 3020 3020 3022 3025 3026 3027 3028 3030
2864 2871 2878 2883 2888 2893 2896 2899 2901 2905 2911 2916 2921 2927 2930 2937 2943 2948 2950 2954 2957 2962 2967 2972 2975 2979 2983 2986 2989 2993 2995 2998 3002 3005 3010 3013 3016 3017 3018 3019 3019 3018 3018 3020 3020 3018 3018 3019 3020 3022 3024 3026 3028 3029
2860 2867 2875 2881 2887 2892 2895 2898 2902 2907 2913 2918 2923 2927 2934 2940 2944 2948 2951 2955 2960 2963 2966 2973 2976 2979 2982 2985 2988 2991 2995 2998 3002 3005 3008 3011 3014 3014 3016 3015 3018 3018 3017 3016 3016 3017 3018 3018 3019 3021 3023 3025 3027 3028
2858 2867 2874 2880 2886 2892 2896 2899 2904 2910 2915 2920 2925 2931 2936 2940 2945 2950 2955 2958 2961 2966 2966 2971 2977 2980 2983 2985 2988 2991 2994 2998 3001 3005 3007 3010 3011 3013 3013 3014 3016 3015 3015 3015 3015 3015 3017 3018 3018 3021 3022 3024 3026 3028
2857 2866 2873 2880 2886 2892 2896 2900 2906 2911 2917 2922 2927 2932 2937 2941 2948 2951 2955 2959 2961 2966 2968 2974 2979 2981 2984 2986 2989 2991 2994 2997 3000 3004 3006 3006 3007 3011 3013 3014 3013 3012 3013 3013 3014 3014 3016 3018 3019 3020 3022 3024 3025 3026
2859 2867 2873 2880 2885 2891 2896 2901 2907 2913 2919 2924 2929 2935 2939 2945 2950 2952 2957 2959 2963 2966 2969 2976 2980 2982 2985 2988 2991 2993 2995 2997 3000 3002 3005 3007 3007 3009 3010 3012 3011 3011 3011 3012 3013 3013 3014 3016 3019 3020 3022 3023 3025 3026
2860 2868 2874 2881 2887 2892 2897 2902 2908 2914 2921 2926 2931 2937 2942 2947 2951 2955 2958 2961 2965 2969 2972 2975 2980 2984 2986 2989 2992 2994 2996 2999 3000 3002 3004 3006 3006 3007 3009 3009 3009 3009 3010 3011 3012 3012 3013 3014 3016 3019 3021 3022 3024 3025
2862 2870 2876 2882 2888 2893 2898 2902 2908 2916 2922 2928 2933 2939 2944 2948 2952 2956 2959 2963 2967 2971 2972 2975 2978 2983 2986 2988 2991 2995 2997 2999 3001 3002 3005 3006 3007 3006 3007 3007 3007 3008 3009 3010 3010 3011 3012 3014 3015 3016 3018 3020 3022 3023
2865 2873 2879 2886 2891 2895 2899 2903 2909 2917 2924 2929 2935 2941 2945 2950 2954 2958 2962 2965 2968 2969 2973 2976 2978 2980 2986 2989 2992 2996 2997 2999 3002 3004 3003 3004 3006 3004 3005 3006 3006 3006 3007 3008 3009 3010 3011 3013 3014 3016 3017 3017 3019 3021
2868 2876 2882 2889 2893 2898 2902 2906 2911 2918 2924 2929 2935 2942 2946 2951 2955 2959 2962 2966 2969 2971 2973 2975 2977 2980 2986 2990 2992 2994 2997 2999 3002 3003 3003 3004 3005 3003 3003 3004 3004 3005 3005 3006 3007 3008 3009 3010 3012 3014 3015 3016 3017 3019
2872 2879 2886 2891 2896 2901 2905 2910 2914 2920 2926 2933 2939 2944 2949 2954 2957 2961 2963 2966 2968 2971 2972 2975 2978 2981 2985 2989 2992 2995 2996 2999 3001 3001 3001 3002 3001 3002 3002 3002 3002 3002 3003 3004 3005 3006 3008 3009 3011 3012 3013 3014 3016 3017
2876 2883 2889 2894 2899 2904 2908 2913 2917 2923 2930 2935 2940 2946 2951 2954 2957 2958 2959 2963 2963 2965 2969 2973 2977 2981 2986 2990 2992 2994 2996 2998 2999 2999 3001 3001 3000 3000 3000 3001 3001 3001 3001 3001 3002 3004 3005 3007 3009 3010 3011 3013 3014 3015
2881 2887 2893 2898 2903 2907 2911 2914 2918 2923 2930 2936 2942 2947 2951 2953 2954 2955 2958 2959 2963 2965 2969 2973 2978 2981 2985 2989 2991 2993 2995 2996 2997 2998 2999 2999 2999 2999 2999 2999 2999 2999 2999 2999 3000 3001 3003 3005 3006 3008 3009 3010 3012 3013
2886 2891 2896 2902 2906 2910 2914 2917 2921 2927 2932 2937 2942 2945 2947 2949 2950 2953 2956 2960 2963 2965 2969 2974 2979 2983 2986 2989 2990 2992 2994 2994 2995 2997 2996 2997 2998 2998 2998 2998 2997 2997 2997 2997 2998 2999 3000 3002 3003 3004 3006 3007 3008 3010
2890 2895 2901 2906 2910 2914 2918 2922 2927 2932 2935 2939 2942 2944 2946 2949 2951 2953 2956 2959 2962 2966 2971 2976 2980 2983 2985 2987 2988 2990 2992 2993 2994 2993 2995 2996 2997 2997 2997 2996 2995 2995 2995 2995 2995 2996 2997 2998 2999 3001 3002 3003 3004 3006
2894 2897 2905 2911 2915 2918 2922 2927 2932 2936 2939 2940 2942 2944 2946 2949 2951 2953 2956 2959 2962 2967 2971 2976 2979 2981 2983 2985 2987 2988 2989 2991 2992 2993 2995 2995 2996 2995 2994 2994 2994 2993 2993 2993 2993 2993 2993 2994 2995 2996 2997 2999 3000 3001
2903 2906 2912 2917 2920 2923 2928 2931 2935 2937 2940 2942 2944 2946 2948 2950 2952 2954 2957 2960 2965 2967 2972 2976 2977 2979 2981 2983 2985 2987 2989 2990 2991 2992 2993 2994 2994 2994 2993 2993 2993 2992 2991 2991 2990 2990 2991 2991 2991 2992 2993 2994 2995 2996
2908 2911 2916 2920 2924 2927 2931 2935 2938 2939 2942 2944 2946 2948 2950 2952 2954 2956 2959 2962 2965 2969 2974 2976 2978 2979 2980 2982 2985 2987 2989 2990 2991 2991 2992 2992 2992 2992 2992 2991 2991 2990 2990 2989 2988 2988 2987 2987 2988 2988 2989 2989 2989 2989
2914 2917 2921 2925 2928 2932 2935 2938 2940 2942 2944 2946 2948 2950 2952 2954 2955 2957 2960 2963 2967 2971 2974 2976 2977 2979 2981 2983 2985 2987 2988 2989 2989 2990 2990 2990 2990 2990 2990 2990 2989 2988 2987 2986 2985 2985 2984 2983 2983 2984 2984 2983 2983 2983
2922 2924 2927 2929 2933 2936 2938 2940 2942 2945 2946 2948 2950 2951 2954 2956 2957 2960 2962 2965 2969 2971 2974 2976 2978 2979 2982 2983 2985 2986 2987 2987 2987 2988 2988 2988 2988 2988 2988 2987 2987 2986 2985 2984 2982 2981 2980 2979 2978 2978 2978 2977 2977 2976
2927 2929 2932 2934 2936 2938 2940 2942 2944 2946 2949 2950 2952 2953 2955 2957 2959 2961 2964 2966 2968 2970 2973 2975 2977 2979 2980 2982 2983 2984 2984 2985 2985 2985 2985 2984 2984 2984 2983 2983 2982 2981 2980 2979 2978 2977 2975 2974 2973 2972 2971 2970 2970 2968
2933 2934 2936 2937 2939 2940 2943 2943 2945 2947 2949 2952 2954 2955 2957 2959 2960 2962 2964 2965 2967 2969 2971 2973 2975 2977 2978 2979 2980 2980 2981 2981 2980 2980 2980 2980 2979 2978 2978 2978 2977 2976 2975 2974 2972 2971 2970 2969 2968 2966 2965 2964 2963 2961
2937 2938 2939 2939 2940 2942 2944 2944 2945 2947 2949 2951 2953 2955 2956 2959 2961 2962 2964 2965 2967 2968 2970 2971 2972 2973 2974 2975 2975 2976 2976 2976 2976 2975 2975 2974 2974 2973 2972 2972 2971 2970 2969 2968 2966 2965 2963 2962 2961 2960 2959 2957 2956 2954
2941 2942 2943 2942 2943 2944 2944 2944 2946 2947 2948 2950 2951 2953 2954 2957 2958 2960 2961 2962 2963 2965 2966 2967 2968 2970 2970 2971 2971 2970 2970 2970 2970 2969 2969 2968 2967 2967 2966 2965 2965 2964 2962 2961 2960 2958 2957 2956 2955 2954 2953 2951 2950 2948
2941 2942 2943 2943 2944 2945 2945 2946 2947 2948 2948 2950 2951 2953 2954 2955 2957 2957 2956 2958 2960 2961 2962 2963 2964 2965 2965 2965 2965 2965 2965 2965 2964 2963 2962 2961 2961 2960 2959 2959 2958 2957 2956 2954 2953 2952 2951 2950 2949 2947 2946 2945 2943 2942
2942 2943 2943 2943 2944 2945 2946 2947 2948 2948 2949 2950 2951 2952 2953 2954 2954 2954 2954 2955 2956 2957 2957 2958 2958 2959 2959 2959 2959 2959 2959 2958 2958 2957 2956 2955 2954 2953 2953 2952 2951 2950 2949 2948 2947 2946 2945 2944 2943 2942 2941 2939 2937 2936
2942 2943 2943 2944 2944 2945 2946 2947 2948 2948 2949 2950 2951 2951 2951 2952 2952 2952 2952 2952 2953 2953 2953 2953 2953 2953 2954 2954 2954 2954 2954 2953 2952 2951 2950 2949 2947 2947 2946 2945 2945 2944 2944 2943 2942 2941 2940 2939 2938 2936 2935 2934 2933 2931
2941 2942 2943 2944 2944 2945 2945 2946 2947 2947 2948 2948 2949 2949 2949 2950 2950 2950 2950 2950 2950 2950 2950 2950 2950 2950 2950 2950 2950 2949 2948 2947 2946 2945 2944 2943 2942 2942 2941 2940 2940 2939 2938 2938 2937 2936 2935 2934 2933 2932 2931 2930 2928 2926
2940 2941 2942 2942 2943 2943 2944 2944 2945 2945 2945 2945 2946 2946 2945 2946 2946 2947 2947 2947 2947 2946 2946 2946 2946 2945 2945 2945 2944 2944 2943 2942 2941 2940 2939 2938 2937 2937 2936 2935 2935 2934 2934 2933 2932 2932 2931 2930 2930 2929 2927 2925 2923 2920
2938 2939 2939 2939 2939 2940 2941 2940 2940 2940 2940 2940 2940 2939 2939 2940 2940 2940 2941 2941 2941 2941 2941 2941 2940 2940 2939 2939 2938 2938 2937 2936 2935 2935 2934 2933 2933 2932 2932 2931 2931 2930 2930 2930 2929 2928 2928 2928 2926 2925 2923 2920 2918 2915
2936 2935 2935 2934 2934 2935 2935 2934 2933 2933 2933 2932 2932 2932 2932 2932 2932 2933 2934 2934 2934 2934 2934 2934 2934 2933 2933 2933 2932 2932 2932 2931 2931 2931 2930 2929 2929 2929 2928 2928 2928 2928 2928 2927 2927 2927 2926 2924 2922 2920 2918 2915 2913 2910
2932 2931 2930 2929 2929 2929 2929 2929 2928 2927 2926 2925 2924 2925 2925 2925 2925 2926 2926 2927 2927 2927 2927 2927 2927 2927 2927 2927 2927 2928 2928 2928 2927 2927 2927 2927 2927 2927 2927 2927 2927 2927 2926 2926 2925 2924 2922 2920 2918 2916 2913 2911 2908 2906
Wind_Speed
40 28 27 24 19 17 12 14 20 28 46 36 36 29 28 28 22 20 19 19 28 25 32 30 27 30 23 17 17 24 24 23 23 14 15 10 7 11 7 6 7 8 7 7 6 6 4 11 15 13 7 6 9 11
32 23 28 25 21 17 16 15 18 32 38 42 37 28 17 19 17 21 20 17 17 18 33 28 23 22 25 22 18 17 17 21 14 12 11 10 7 8 10 5 7 5 7 2 8 7 6 11 19 18 8 10 11 10
33 30 28 25 24 20 20 19 22 27 37 30 21 19 23 19 17 19 22 20 14 23 27 22 23 20 18 19 18 18 24 17 21 20 13 9 7 8 9 8 7 9 10 7 8 9 10 12 16 19 13 13 12 11
36 31 27 28 25 21 16 23 23 26 22 19 21 27 23 20 19 20 17 20 18 28 24 21 17 16 15 16 17 16 16 16 15 18 12 6 7 12 10 4 8 8 7 9 11 6 8 13 15 16 14 12 12 11
37 33 30 27 27 22 18 24 31 29 21 25 27 24 25 23 22 22 20 20 18 15 25 23 17 15 14 14 15 15 14 14 14 14 12 8 8 6 6 8 7 9 12 8 9 7 10 11 13 13 12 13 13 12
34 31 30 28 28 25 22 22 35 31 29 23 23 26 27 24 25 27 23 19 20 8 25 16 18 16 15 15 14 14 15 16 15 7 8 9 11 8 6 7 13 11 9 8 6 6 10 9 13 13 13 13 12 11
38 32 27 28 28 26 24 24 30 32 26 21 25 27 26 25 25 26 23 24 22 12 21 15 11 17 18 16 15 14 13 13 10 8 5 4 7 10 7 6 12 10 8 7 6 6 9 9 11 13 13 13 12 11
39 29 28 29 25 23 24 25 27 39 27 22 25 26 27 25 21 16 14 19 19 17 13 9 11 17 19 13 13 12 11 9 8 6 6 4 5 7 4 9 10 9 9 7 6 7 8 10 13 13 12 11 10 10
37 30 27 26 24 23 24 27 38 38 27 24 27 27 25 22 20 16 20 18 19 13 9 9 17 15 20 16 12 10 9 8 7 5 3 5 4 3 5 6 9 10 9 9 8 9 9 10 13 13 12 10 10 9
35 32 29 26 23 23 21 27 38 38 29 29 31 30 24 23 20 20 19 19 15 11 8 12 15 16 21 16 12 9 7 6 3 5 5 4 4 7 6 7 6 8 11 11 11 11 11 11 12 12 12 12 11 10
36 31 27 26 22 22 21 24 35 38 29 31 31 26 24 21 21 17 9 11 9 7 9 10 13 17 21 13 14 7 6 5 3 4 3 2 2 5 6 10 11 10 10 10 13 14 14 13 12 11 10 10 10 10
31 30 26 25 22 21 20 20 24 37 34 30 30 23 25 20 9 6 11 10 7 6 12 12 14 19 21 16 9 5 5 6 3 5 4 2 6 5 5 6 7 9 10 11 14 15 14 12 11 10 10 11 11 10
30 28 26 25 21 21 20 18 22 31 34 29 25 21 18 9 8 8 10 10 9 16 20 19 19 22 19 11 6 5 5 5 4 4 2 4 4 4 3 4 5 6 8 11 14 15 17 16 13 11 10 11 12 12
33 29 28 25 24 22 18 19 26 29 31 23 15 15 9 7 9 9 11 16 12 16 21 21 22 17 18 10 6 5 5 5 4 4 3 5 3 3 4 5 5 6 8 9 12 16 16 16 15 14 13 14 15 14
31 28 27 26 23 21 18 23 29 29 26 14 9 7 12 9 15 12 15 17 14 19 25 25 22 16 16 6 5 4 6 4 4 4 7 6 3 2 2 4 5 6 7 8 12 15 18 18 17 16 16 16 17 17
32 30 26 25 23 19 21 27 31 26 16 13 7 10 13 12 14 14 17 19 19 24 26 22 12 8 8 5 7 5 5 3 5 8 8 5 4 4 7 8 6 7 7 7 9 13 15 17 17 17 18 18 19 19
33 33 28 25 21 22 32 30 27 18 12 6 10 12 15 12 14 16 18 18 22 27 25 16 9 8 8 6 6 7 7 7 7 8 6 6 7 9 10 5 4 6 7 8 9 9 11 14 16 18 18 18 18 18
27 30 26 22 18 23 28 23 18 8 11 11 13 12 10 12 13 14 16 20 26 25 21 12 7 8 6 6 7 9 9 7 5 5 4 4 4 5 4 5 6 7 8 8 8 8 9 11 13 15 16 17 18 19
27 28 23 19 17 22 22 16 14 14 14 13 14 12 10 10 13 13 16 24 22 22 17 11 6 6 8 10 12 10 7 5 4 5 6 7 8 7 8 8 9 10 10 9 10 11 11 13 14 15 16 18 21 22
24 24 21 19 21 21 9 10 16 13 15 14 15 15 10 7 11 13 17 23 23 20 16 7 9 12 15 12 9 7 4 1 3 5 6 6 6 5 5 6 6 7 9 11 12 12 13 14 15 17 19 22 25 25
20 20 20 19 19 15 10 12 13 11 12 11 12 11 11 14 11 13 17 21 21 16 12 12 13 11 10 9 8 6 7 9 11 11 11 11 11 11 11 11 12 12 13 13 13 14 16 17 18 19 21 23 26 27
20 17 15 12 12 12 7 13 10 14 13 13 12 11 11 11 13 12 14 17 17 16 14 12 11 13 12 12 11 11 10 10 10 10 12 14 15 14 14 15 16 16 16 15 15 15 16 18 18 19 21 23 24 26
18 18 16 12 7 5 8 10 12 13 9 12 12 11 11 10 9 9 7 11 11 9 12 11 8 9 11 11 11 12 13 14 15 16 17 17 16 17 17 17 17 17 17 17 18 19 19 19 19 21 22 22 23 23
11 11 5 4 5 6 7 6 8 10 10 10 15 14 12 12 10 11 11 12 11 12 14 13 12 12 13 15 16 16 17 18 19 19 20 21 21 20 19 19 19 19 20 20 21 21 21 21 22 22 21 21 21 22
7 4 4 4 4 4 4 6 6 7 9 8 10 12 11 15 16 18 18 16 14 13 12 16 16 13 13 14 16 19 20 21 22 22 22 22 22 21 20 20 20 21 22 21 20 20 20 20 20 20 20 20 20 21
3 2 2 2 4 4 5 6 6 6 7 7 7 8 8 8 7 5 15 16 16 16 15 16 18 20 21 21 20 20 21 23 24 25 23 22 21 21 21 20 21 20 20 20 20 19 19 19 19 20 20 20 20 20
2 0 1 3 2 5 6 5 5 3 4 3 4 5 6 5 5 7 7 10 12 13 15 17 18 19 19 20 21 19 19 18 18 19 20 20 20 20 20 21 21 20 19 18 18 19 19 19 19 19 17 17 16 18
6 4 1 3 3 5 6 5 2 2 4 5 5 4 3 4 5 3 3 0 2 4 6 9 12 13 14 14 13 14 14 16 17 18 19 19 19 19 19 18 18 17 17 17 18 18 17 17 17 15 13 14 16 18
5 5 5 4 5 5 5 5 6 6 5 6 5 6 7 7 8 9 11 11 10 8 8 8 9 10 11 13 15 15 16 17 18 18 18 16 16 15 15 15 15 16 16 16 16 15 15 13 11 11 13 15 17 20
8 8 9 8 8 9 8 7 6 8 9 9 10 13 14 13 13 14 14 14 14 15 15 15 15 16 17 18 18 18 18 17 16 15 14 14 14 14 14 14 14 14 14 13 12 11 9 9 10 13 15 18 19 20
8 9 11 13 15 14 14 17 20 20 19 19 19 21 23 22 23 21 20 20 20 20 21 21 21 21 21 20 19 18 16 15 14 13 13 14 13 12 12 12 11 11 10 8 7 7 9 11 13 16 17 18 19 20
8 11 13 16 19 18 19 20 21 22 22 22 23 22 22 23 25 26 25 25 25 24 22 22 22 21 19 18 17 16 15 13 13 13 12 12 10 10 9 9 8 6 5 5 7 9 12 14 15 17 18 18 18 17
10 8 8 11 12 13 12 12 13 15 15 16 17 17 18 20 23 22 20 18 17 17 17 17 16 15 15 14 13 12 12 12 12 11 9 8 7 6 5 3 2 3 6 8 11 12 14 15 16 16 16 16 16 16
Wind_Direction
196 180 187 208 204 199 199 199 208 187 172 174 150 142 133 136 152 167 164 170 176 170 161 165 174 182 167 173 182 193 187 195 190 188 194 199 214 199 192 189 200 212 220 219 237 246 195 205 188 185 219 209 190 184
195 185 192 196 199 191 204 202 205 175 167 171 160 144 156 148 146 159 156 159 170 172 179 174 182 187 181 182 191 186 193 198 189 182 189 193 190 198 199 210 213 222 214 228 205 224 219 206 201 201 229 188 175 165
185 194 190 194 190 191 201 210 199 184 157 154 161 164 164 160 159 159 156 155 164 166 154 167 176 185 192 197 196 190 194 206 194 184 174 180 192 186 200 216 200 235 232 231 216 245 237 214 202 198 192 183 175 169
180 178 187 185 178 183 193 198 196 157 158 162 161 163 172 171 157 164 155 152 162 164 154 156 170 176 177 183 189 194 195 198 193 196 195 189 192 176 204 217 201 213 222 232 226 247 218 196 196 197 189 188 186 183
181 182 184 179 175 182 188 192 159 154 148 159 163 174 173 160 160 153 161 160 168 163 161 154 156 161 165 169 173 178 176 179 189 193 198 186 197 173 194 198 223 222 249 238 252 240 222 204 195 199 197 192 191 189
159 177 178 182 184 180 184 192 175 160 156 164 171 168 164 160 169 155 160 160 173 189 149 141 150 151 153 158 158 164 169 176 173 163 183 200 208 160 191 215 224 238 235 243 235 227 212 219 210 201 200 199 196 194
168 171 177 180 174 173 177 188 178 169 161 164 165 166 164 164 171 161 168 166 171 169 156 125 140 153 146 140 141 144 152 164 157 176 160 182 197 184 212 226 252 232 234 238 237 232 208 209 214 210 200 198 200 204
170 167 164 170 173 173 176 177 179 169 167 166 167 166 167 170 164 168 170 167 158 162 159 138 152 160 155 152 150 149 150 155 164 161 163 147 215 196 218 236 232 226 226 238 237 231 215 203 193 200 205 208 209 207
164 163 162 164 164 165 166 171 169 166 171 166 164 164 169 166 167 158 157 160 165 160 163 165 162 172 171 166 159 167 176 182 183 177 184 172 214 216 209 222 227 224 232 239 238 226 218 206 201 193 199 209 210 210
163 162 157 153 150 148 148 158 173 175 170 169 167 165 170 166 160 148 148 160 165 168 162 154 179 168 173 170 165 153 161 164 126 190 195 205 229 237 224 219 226 231 238 239 238 225 221 219 219 217 212 205 203 204
163 162 158 157 152 149 147 158 173 175 167 169 176 166 162 159 153 153 160 173 176 175 185 183 185 179 172 169 166 155 152 158 147 237 176 226 230 251 241 242 243 242 242 231 220 216 214 211 213 216 219 217 215 212
160 161 160 161 156 152 149 154 168 181 176 171 172 161 154 149 141 163 174 167 157 183 180 181 165 175 173 166 159 161 164 164 167 188 193 208 239 242 259 253 246 243 241 234 231 228 221 214 215 221 224 224 218 216
167 167 162 160 158 153 150 150 162 172 170 164 157 156 162 159 171 177 167 169 184 182 186 179 172 167 166 162 161 164 173 186 178 194 198 201 225 249 248 241 246 246 251 249 231 223 223 227 230 233 234 229 221 224
157 160 162 161 157 155 156 161 168 175 171 157 140 144 167 182 184 171 176 188 182 180 176 172 168 167 169 158 155 170 182 176 178 198 205 193 207 232 252 266 267 256 258 249 228 225 227 230 234 237 236 233 228 232
155 157 155 152 155 153 152 159 158 153 146 129 130 162 170 175 181 192 187 181 181 178 177 170 173 171 169 159 173 174 179 187 191 183 201 189 175 166 303 303 294 272 255 254 235 229 232 237 241 242 240 238 234 238
145 144 149 152 149 152 158 152 145 148 144 143 150 154 164 162 173 178 179 179 178 172 170 165 164 166 169 175 178 181 176 178 195 187 183 206 228 272 316 310 299 296 272 252 241 235 235 237 241 243 242 239 237 242
146 145 145 144 143 141 151 155 154 153 154 137 150 162 165 166 177 177 178 177 172 166 167 163 165 173 159 184 183 177 180 180 167 180 215 244 275 298 302 279 312 322 287 264 251 247 245 244 243 243 241 240 240 248
138 136 141 143 140 150 152 155 153 140 156 149 144 157 169 168 168 167 171 167 165 169 165 161 152 158 147 160 173 171 168 173 196 225 245 262 285 328 331 307 311 318 308 286 271 261 256 250 244 239 239 240 247 256
136 139 144 146 146 155 143 127 148 142 151 150 152 141 145 158 169 169 171 170 171 173 167 151 142 147 163 162 157 157 162 183 226 262 280 286 288 291 296 300 302 302 299 294 283 273 266 261 255 250 247 250 256 262
134 136 138 141 147 149 124 118 130 125 143 149 152 159 159 134 167 168 175 177 175 170 171 160 161 156 157 158 161 162 161 208 284 289 290 292 300 298 303 318 328 325 312 296 288 280 272 267 263 259 257 258 262 267
134 135 134 138 155 163 143 140 160 158 141 148 158 163 166 163 155 168 172 179 183 191 185 170 164 162 174 189 199 220 259 280 283 277 291 281 282 284 288 295 300 305 307 306 304 292 281 273 268 267 267 269 272 274
126 127 132 137 151 161 161 178 152 153 161 160 161 161 152 154 170 172 174 187 199 209 211 212 222 223 228 228 233 244 263 279 286 289 292 290 285 285 282 285 289 292 294 295 297 297 292 286 279 274 272 273 275 277
125 123 124 125 104 101 126 159 173 184 171 173 169 168 170 167 163 166 176 194 202 211 207 212 219 221 229 241 253 264 273 282 285 285 286 288 293 284 280 286 290 290 290 293 294 292 288 286 281 276 275 275 276 279
133 129 97 73 79 106 129 147 170 184 194 203 212 215 213 205 195 199 210 217 216 219 220 225 230 240 250 257 261 265 271 277 284 288 287 284 284 286 282 281 286 289 290 291 289 288 283 279 279 279 279 278 279 282
143 107 79 81 92 100 116 137 147 170 180 185 199 205 220 227 230 235 240 238 232 235 239 232 235 245 259 269 267 263 267 274 280 284 286 283 280 281 280 280 283 286 287 287 286 283 281 280 279 279 278 279 282 284
156 83 57 93 140 131 127 127 132 129 145 168 184 192 197 199 207 222 234 237 239 244 249 248 249 255 265 271 276 270 267 271 277 280 281 279 276 276 278 280 282 283 284 282 281 281 279 279 278 277 278 280 282 287
187 359 2 207 189 168 155 143 134 129 161 150 166 171 176 199 217 238 241 242 247 249 252 252 252 255 262 270 270 270 271 273 279 283 282 280 277 274 275 277 280 281 282 281 281 279 279 280 281 281 280 284 293 297
229 226 338 214 193 188 190 204 235 185 184 204 206 196 200 205 233 238 199 332 315 266 264 262 259 256 255 261 266 270 276 283 287 289 287 283 280 277 276 278 279 280 280 280 279 281 283 281 280 285 293 298 299 300
219 214 229 246 238 227 227 227 223 233 248 247 217 234 250 252 255 262 270 280 284 284 280 276 275 272 271 272 275 281 286 289 289 288 287 285 282 279 277 276 277 278 279 281 284 283 282 283 292 301 301 299 301 305
230 233 246 251 243 244 236 235 262 280 264 264 257 256 256 257 262 263 266 270 273 274 276 280 282 282 281 281 281 282 283 284 284 285 286 284 281 279 278 279 280 282 284 283 281 280 289 306 306 300 302 305 308 310
243 245 251 253 253 251 259 266 274 275 271 270 270 268 266 263 260 263 266 269 272 275 277 278 279 281 281 280 280 279 278 279 280 282 283 281 280 279 278 278 279 278 278 281 294 312 309 303 304 307 310 312 313 314
285 277 267 260 259 261 265 268 270 270 271 270 269 267 263 261 262 262 265 270 273 275 273 272 275 276 274 272 270 270 271 273 277 280 280 278 275 272 270 268 269 276 299 321 310 305 308 311 313 315 316 316 318 319
301 291 274 261 265 269 270 269 279 283 276 271 269 265 261 259 262 267 270 269 268 269 271 273 270 266 262 259 259 262 268 275 278 277 269 261 258 258 255 262 311 323 310 310 312 315 317 318 320 321 322 323 324 326